Regional Weather Roundup
Issued by NWS

Home | Current Version | Previous Version | Text Only | Print | Product List | Glossary Off
Versions: 1 2 3 4 5 6 7 8 9 10 11 12 13 14 15 16 17 18 19 20 21 22 23 24 25 26 27 28 29 30 31 32 33 34 35 36 37 38 39 40 41 42 43 44 45 46 47

000
ASUS43 KDMX 110207
RWRIA

WEATHER ROUNDUP FOR IOWA
NATIONAL WEATHER SERVICE DES MOINES IA
900 PM CDT THU JUL 10 2014

NOTE: "FAIR" INDICATES FEW OR NO CLOUDS BELOW 12,000 FEET WITH NO
SIGNIFICANT WEATHER AND/OR OBSTRUCTIONS TO VISIBILITY.

* - THESE STATIONS ARE NOT NWS STATIONS...THUS NOT UNDER NWS
QUALITY CONTROL.  THEY ALSO DO NOT REPORT WEATHER SUCH
AS PRECIPITATION OR FOG.

IAZ001>003-012>014-020>022-031>034-043>046-110300-
   NORTHWEST IOWA

CITY           SKY/WX    TMP DP  RH WIND       PRES   REMARKS
CARROLL *      CLOUDY    73  61  64 S7        30.04R
CHEROKEE *     CLOUDY    75  66  73 SE9       29.97F
DENISON *      MOCLDY    75  64  69 S10G17    29.98S
LE MARS *      PTCLDY    77  66  69 S10       29.95R
ORANGE CITY *  MOCLDY    79  64  61 S10G16    29.95S HX  81
SHELDON *      CLOUDY    75  66  73 S17G24    29.94F
SIOUX CITY     CLEAR     78  67  68 S10       29.94R HX  80
SPENCER        CLOUDY    73  65  75 S13       29.97F
STORM LAKE *   CLOUDY    73  64  73 S16G23    30.00F
$$

IAZ055>058-069>071-079>083-090>094-110300-
   SOUTHWEST IOWA

CITY           SKY/WX    TMP DP  RH WIND       PRES   REMARKS
ATLANTIC *     PTCLDY    75  63  64 SE9       30.02S
AUDUBON *      PTCLDY    75  66  73 S6        30.04S
CLARINDA *     PTCLDY    75  64  69 SE8       30.04R
COUNCIL BLFS * CLEAR     75  68  78 SE10G18   29.99S
CRESTON *      MOCLDY    68  63  83 SE7       30.06S
HARLAN  *      MOCLDY    73  64  73 S9G15     30.04S
LAMONI         PTCLDY    72  59  63 SE6       30.07R
RED OAK *      CLEAR     75  66  73 SE8       30.02R
SHENANDOAH *   CLEAR     75  66  73 SE9G15    30.02R
$$

IAZ047>049-059>061-072>074-084-110300-
   CENTRAL IOWA

CITY           SKY/WX    TMP DP  RH WIND       PRES   REMARKS
AMES           CLOUDY    72  62  71 SE7       30.05S
ANKENY *       CLOUDY    73  61  64 SE5       30.06R
CHARITON *     PTCLDY    72  61  68 SE7       30.07F
DES MOINES     MOCLDY    75  59  57 SE8       30.06R
GRINNELL*      MOCLDY    72  57  60 SE8       30.09S
KNOXVILLE *    MOCLDY    72  61  68 SE7       30.06S
MARSHALLTOWN   CLOUDY    72  59  63 SE8       30.07R
PELLA *        MOCLDY    72  59  64 SE6       30.08F
PERRY *          N/A     72  61  67 SE7       30.04S
$$

IAZ004>006-015-016-023>025-035-036-110300-
   NORTH CENTRAL IOWA

CITY           SKY/WX    TMP DP  RH WIND       PRES   REMARKS
ALGONA *       CLOUDY    75  61  60 S15G21    30.00F
CLARION *      CLOUDY    73  59  60 S12       30.03F
ESTHERVILLE    CLOUDY    75  60  59 S18G25    29.98
FORT DODGE *   CLOUDY    75  61  60 S9        30.04S
MASON CITY     CLOUDY    74  60  61 S14       30.05F
FOREST CITY *    N/A     72  59  64 S12       30.03F
IOWA FALLS *     N/A     69  61  75 SE7       30.07F
$$

IAZ007>011-017>019-026>030-037>042-050>054-066-110300-
   NORTHEAST IOWA

CITY           SKY/WX    TMP DP  RH WIND       PRES   REMARKS
CEDAR RAPIDS   MOCLDY    71  61  70 S5        30.09S
CHARLES CITY * MOCLDY    72  59  64 S9        30.08R
CLINTON *      PTCLDY    72  61  68 S6        30.14S
DECORAH *        N/A    N/A N/A N/A MISG        N/A
DUBUQUE        PTCLDY    68  62  81 S8        30.12R
MONTICELLO *   PTCLDY    70  61  73 SE6       30.10S
OELWEIN *      MOCLDY    70  70 100 S7        30.10R
WATERLOO       MOCLDY    74  59  59 S8        30.07R
$$

IAZ064-065-067-068-078-110300-
   EAST CENTRAL IOWA

CITY           SKY/WX    TMP DP  RH WIND       PRES   REMARKS
DAVENPORT      PTCLDY    68  59  73 S6        30.12R
IOWA CITY      PTCLDY    73  61  65 SE3       30.11S
MT. PLEASANT * PTCLDY    69  59  70 SE5       30.11S
MUSCATINE *    PTCLDY    73  61  64 CALM      30.11R
QUAD CITIES    PTCLDY    69  61  75 S3        30.11R
$$

IAZ062-063-075>077-085>089-095>099-110300-
   SOUTHEAST IOWA

CITY           SKY/WX    TMP DP  RH WIND       PRES   REMARKS
BURLINGTON     PTCLDY    71  61  70 S3        30.11R
FAIRFIELD *    PTCLDY    68  61  77 SE5       30.10S
FORT MADISON * PTCLDY    72  61  68 SE5       30.12R
KEOKUK *       PTCLDY    72  59  64 SE5       30.10R
OSKALOOSA *      N/A     68  60  75 SE6       30.09S
CENTERVILLE *    N/A     68  64  88 SE5       30.10R
OTTUMWA        PTCLDY    68  58  70 SE7       30.08S
WASHINGTON *   PTCLDY    70  61  73 SE6       30.10S
$$

ABBREVIATIONS USED IN REMARKS
   TC - TEMPERATURES IN CELSIUS
  WCI - WIND CHILL INDEX
   HX - HEAT INDEX
  VSB - VISIBILITY
$$



USA.gov is the U.S. government's official web portal to all federal, state and local government web resources and services.